DW6576 Weather Reports


Display with metric or nautical units.
time (UTC)temp
F
wind
direction
speed
MPH
gust
MPH
rain 1hr
in
rain 24hr
in
rain mn
in
humidity
%
barometer
mb
20181020001709 66 300 0.0 1.0 0.00 0.00 0.00 29 1023.1
20181020000210 67 300 0.0 2.0 0.00 0.00 0.00 27 1023.0
20181019234833 67 135 0.0 0.0 0.00 0.00 0.00 27 1022.9
20181019233207 66 315 0.0 2.0 0.00 0.00 0.00 27 1022.8
20181019231707 66 300 1.0 3.0 0.00 0.00 0.00 27 1022.9
20181019230205 66 27 1.0 2.0 0.00 0.00 0.00 28 1023.0
20181019224719 67 325 1.0 4.0 0.00 0.00 0.00 26 1023.0
20181019223204 67 153 0.0 4.0 0.00 0.00 0.00 27 1022.9
20181019221706 67 317 0.0 5.0 0.00 0.00 0.00 28 1022.9
20181019220202 69 113 0.0 1.0 0.00 0.00 0.00 26 1023.0
20181019214700 68 153 0.0 2.0 0.00 0.00 0.00 26 1023.2
20181019213206 67 139 0.0 3.0 0.00 0.00 0.00 28 1023.2
20181019211652 67 310 0.0 3.0 0.00 0.00 0.00 29 1023.4
20181019210151 65 287 3.0 7.0 0.00 0.00 0.00 30 1023.6
20181019204651 66 354 0.0 4.0 0.00 0.00 0.00 32 1023.6
20181019203146 65 17 2.0 6.0 0.00 0.00 0.00 32 1023.7
20181019201716 64 351 2.0 7.0 0.00 0.00 0.00 33 1023.8
20181019200236 63 262 1.0 7.0 0.00 0.00 0.00 33 1024.1
20181019194643 64 307 3.0 9.0 0.00 0.00 0.00 31 1024.3
20181019193145 63 290 4.0 7.0 0.00 0.00 0.00 33 1024.6
20181019191655 63 327 2.0 8.0 0.00 0.00 0.00 34 1024.8
20181019190138 62 295 1.0 8.0 0.00 0.00 0.00 35 1025.1
20181019184636 62 290 3.0 10.0 0.00 0.00 0.00 37 1025.2
20181019183207 62 318 2.0 8.0 0.00 0.00 0.00 40 1025.4
20181019181623 60 278 4.0 8.0 0.00 0.00 0.00 45 1025.7
20181019180121 58 295 5.0 9.0 0.00 0.00 0.00 50 1026.0
20181019174730 57 349 4.0 8.0 0.00 0.00 0.00 54 1026.2
20181019173145 56 307 5.0 11.0 0.00 0.00 0.00 57 1026.3
20181019171731 55 317 4.0 8.0 0.00 0.00 0.00 57 1026.6
20181019170205 54 293 3.0 10.0 0.00 0.00 0.00 60 1026.8
20181019164712 54 337 5.0 10.0 0.00 0.00 0.00 60 1027.0
20181019163154 54 322 3.0 8.0 0.00 0.00 0.00 61 1026.9
20181019161658 53 307 3.0 7.0 0.00 0.00 0.00 63 1027.1
20181019160140 51 305 2.0 9.0 0.00 0.00 0.00 67 1027.1
20181019154650 50 297 3.0 8.0 0.00 0.00 0.00 71 1027.2
20181019153138 48 347 3.0 6.0 0.00 0.00 0.00 74 1027.2
20181019151601 47 298 4.0 8.0 0.00 0.00 0.00 76 1027.2
20181019150107 47 330 1.0 5.0 0.00 0.00 0.00 77 1027.1
20181019144648 46 308 1.0 5.0 0.00 0.00 0.00 78 1027.0
20181019143101 45 300 0.0 4.0 0.00 0.00 0.00 80 1026.8
20181019141612 44 332 0.0 2.0 0.00 0.00 0.00 82 1026.6
20181019140114 44 316 0.0 0.0 0.00 0.00 0.00 83 1026.3
20181019134555 43 316 0.0 1.0 0.00 0.00 0.00 83 1026.0
20181019133100 44 318 0.0 0.0 0.00 0.00 0.00 81 1025.9
20181019131557 46 317 0.0 0.0 0.00 0.00 0.00 80 1025.8
20181019130034 47 314 0.0 1.0 0.00 0.00 0.00 79 1025.9
20181019124533 47 314 0.0 3.0 0.00 0.00 0.00 78 1025.9
20181019123026 47 316 0.0 1.0 0.00 0.00 0.00 78 1025.8
20181019121549 48 307 0.0 2.0 0.00 0.00 0.00 78 1025.7
20181019120116 48 340 0.0 1.0 0.00 0.00 0.00 78 1025.7
20181019114520 49 305 0.0 1.0 0.00 0.00 0.00 76 1025.5
20181019113022 49 305 0.0 1.0 0.00 0.00 0.00 77 1025.5
20181019111535 48 314 0.0 1.0 0.00 0.00 0.00 78 1025.3
20181019110020 48 310 0.0 0.0 0.00 0.00 0.00 78 1025.3
20181019104517 49 310 0.0 1.0 0.00 0.00 0.00 78 1025.3
20181019103019 49 316 0.0 0.0 0.00 0.00 0.00 78 1025.2
20181019101520 48 320 0.0 0.0 0.00 0.00 0.00 79 1025.1
20181019100038 48 321 0.0 0.0 0.00 0.00 0.00 79 1025.1
20181019094517 48 321 0.0 0.0 0.00 0.00 0.00 79 1025.1
20181019093036 48 321 0.0 0.0 0.00 0.00 0.00 78 1025.1
20181019090010 48 320 0.0 0.0 0.00 0.00 0.00 79 1025.1
20181019084519 48 321 0.0 0.0 0.00 0.00 0.00 79 1025.1
20181019083021 48 321 0.0 0.0 0.00 0.00 0.00 79 1025.1
20181019081512 48 320 0.0 0.0 0.00 0.00 0.00 78 1025.1
20181019080005 48 320 0.0 0.0 0.00 0.00 0.00 78 1025.2
20181019074502 48 320 0.0 0.0 0.00 0.00 0.00 78 1025.1
20181019073001 49 321 0.0 0.0 0.00 0.00 0.00 78 1025.0
20181019071459 49 322 0.0 0.0 0.00 0.00 0.00 77 1025.0
20181019065957 49 321 0.0 0.0 0.00 0.00 0.00 78 1025.0
20181019064457 49 320 0.0 0.0 0.00 0.00 0.00 78 1024.9
20181019062956 49 321 0.0 0.0 0.00 0.00 0.00 78 1024.9
20181019061455 49 320 0.0 0.0 0.00 0.00 0.00 78 1024.9
20181019055953 49 321 0.0 0.0 0.00 0.00 0.00 77 1024.9
20181019054450 49 322 0.0 0.0 0.00 0.00 0.00 77 1024.9
20181019052950 49 321 0.0 0.0 0.00 0.00 0.00 76 1024.8
20181019051450 49 320 0.0 0.0 0.00 0.00 0.00 75 1024.8
20181019045951 49 322 0.0 0.0 0.00 0.00 0.00 74 1024.9
20181019044450 49 321 0.0 0.0 0.00 0.00 0.00 74 1024.9
20181019042950 49 322 0.0 0.0 0.00 0.00 0.00 73 1024.9
20181019041446 50 321 0.0 1.0 0.00 0.00 0.00 73 1024.9
20181019035946 50 320 0.0 2.0 0.00 0.00 0.00 72 1024.7
20181019034446 50 322 0.0 2.0 0.00 0.00 0.00 72 1024.7
20181019032949 49 200 0.0 1.0 0.00 0.00 0.00 74 1024.7
20181019031447 49 176 0.0 0.0 0.00 0.00 0.00 75 1024.6
20181019025945 48 176 0.0 0.0 0.00 0.00 0.00 74 1024.4
20181019024443 49 176 0.0 0.0 0.00 0.00 0.00 73 1024.4
20181019022943 48 176 0.0 0.0 0.00 0.00 0.00 74 1024.3
20181019021443 48 165 0.0 0.0 0.00 0.00 0.00 76 1024.5
20181019015941 48 165 0.0 0.0 0.00 0.00 0.00 75 1024.3
20181019014439 48 165 0.0 0.0 0.00 0.00 0.00 75 1024.1
20181019012939 48 165 0.0 0.0 0.00 0.00 0.00 74 1023.9
20181019011440 48 165 0.0 0.0 0.00 0.00 0.00 74 1023.8
20181019005937 49 165 0.0 0.0 0.00 0.00 0.00 71 1023.7
20181019004435 50 165 0.0 1.0 0.00 0.00 0.00 68 1023.8
20181019002936 51 165 0.0 0.0 0.00 0.00 0.00 66 1023.6